Location: �quirre
(50.4736°N, 2.2351°E)
Time: 17:12:02
(UTC+00:00)

CZ-2D R/B - Pass Details

Date: 07 August 2020
Orbit: 792 x 845 km, 98.7° (Epoch: 24 September)

Event Time Altitude Azimuth Distance (km) Brightness Sun altitude
Rises 03:49:14 0° 3° (N) 3,407 6.0 -6.1°
Reaches altitude 10° 03:52:56 10° 338° (NNW) 2,474 4.8 -5.6°
Maximum altitude 03:55:20 13° 311° (NW) 2,258 4.3 -5.3°
Drops below altitude 10° 03:57:44 10° 285° (WNW) 2,473 4.3 -5.0°
Enters shadow 04:00:42 - 263° (W) 3,182 4.6 -4.6°
